Location: N�rnberg
(49.4471°N, 11.0632°E)
Time: 09:22:58
(UTC+01:00)

Tiangong - Pass Details

Date: 15 February 2026
Orbit: 381 x 391 km, 41.5° (Epoch: 7 March)

Event Time Altitude Azimuth Distance (km) Brightness Sun altitude
Rises 19:30:48 0° 249° (WSW) 2,252 2.9 -19.3°
Reaches altitude 10° 19:33:15 10° 231° (SW) 1,397 1.3 -19.7°
Enters shadow 19:35:21 19° 189° (S) 986 -0.1 -20.1°
